This is the latest recevied weather packets stored in our database for station/object VE6EN. If no packets are shown the sender has not sent any weather packets the latest 10 day(s).
| Time | Temp. | Humidity | Pressure | Rain* | Wind** | Luminosity | Snow |
|---|---|---|---|---|---|---|---|
| 1787901604 | 16.67° C | 47% | 1008.9 hPa | 0 mm | - | - | - |
| 1787901003 | 16.67° C | 47% | 1008.8 hPa | 0 mm | - | - | - |
| 1787900404 | 16.67° C | 48% | 1008.8 hPa | 0 mm | - | - | - |
| 1787899807 | 16.11° C | 49% | 1008.8 hPa | 0 mm | - | - | - |
| 1787899204 | 16.11° C | 50% | 1008.9 hPa | 0 mm | - | - | - |
| 1787898003 | 16.11° C | 51% | 1008.8 hPa | 0 mm | - | - | - |
| 1787897404 | 16.67° C | 51% | 1008.7 hPa | 0 mm | - | - | - |
| 1787896807 | 17.22° C | 49% | 1008.7 hPa | 0 mm | - | - | - |
| 1787896207 | 17.22° C | 48% | 1008.4 hPa | 0 mm | - | - | - |
| 1787895604 | 17.78° C | 47% | 1008.3 hPa | 0 mm | - | - | - |
| 1787895004 | 18.33° C | 46% | 1008.3 hPa | 0 mm | - | - | - |
| 1787894404 | 18.33° C | 46% | 1008.2 hPa | 0 mm | - | - | - |
| 1787893804 | 18.89° C | 44% | 1008.1 hPa | 0 mm | - | - | - |
| 1787893205 | 18.89° C | 42% | 1008.2 hPa | 0 mm | - | - | - |
| 1787892604 | 18.89° C | 40% | 1008.4 hPa | 0 mm | - | - | - |
| 1787892004 | 18.89° C | 40% | 1008.1 hPa | 0 mm | - | - | - |
| 1787891408 | 18.89° C | 41% | 1007.7 hPa | 0 mm | - | - | - |
| 1787890807 | 19.44° C | 42% | 1007.8 hPa | 0 mm | - | - | - |
| 1787890205 | 20° C | 40% | 1007.5 hPa | 0 mm | - | - | - |
| 1787889605 | 20.56° C | 38% | 1007 hPa | 0 mm | - | - | - |
| 1787889011 | 20.56° C | 37% | 1006.8 hPa | 0 mm | - | - | - |
| 1787888405 | 20.56° C | 38% | 1006.6 hPa | 0 mm | - | - | - |
| 1787887805 | 20.56° C | 39% | 1006.4 hPa | 0 mm | - | - | - |
| 1787887206 | 21.11° C | 38% | 1006.3 hPa | 0 mm | - | - | - |
| 1787886604 | 21.11° C | 38% | 1006.1 hPa | 0 mm | - | - | - |
* Rain latest hour (hover to see other rain measurements)
** Current wind speed in m/s (hover to see current wind gust speed)